Hourly Data Report for November 30, 2016

CARBERRY CS
MANITOBA

49°54'20.900" N
99°21'26.800" W
383.50 m
5010547
71170
WZE

Download Data

Hourly Data (November 2016)
Hourly Data Report for November 30, 2016
TIME
LST
Temp Definition
°C
Dew Point Definition
°C
Rel Hum Definition
%
Precip. Amount Definition
mm

Wind Dir Definition
10's deg

Wind Spd Definition
km/h
Visibility Definition
km
Stn Press Definition
kPa
Hmdx Definition


Wind Chill Definition


Weather Definition


00:00 -1.2 -1.7 97 0.0 2 23   96.00   -7 LegendNANA
01:00 -1.3 -1.8 97 0.0 2 22   96.04   -7 LegendNANA
02:00 -1.6 -2.1 96 0.0 1 22   96.08   -8 LegendNANA
03:00 -1.8 -2.3 96 0.0 1 21   96.11   -8 LegendNANA
04:00 -1.9 -2.5 96 0.0 1 24   96.10   -8 LegendNANA
05:00 -2.1 -2.6 96 0.0 1 22   96.15   -8 LegendNANA
06:00 -2.1 -2.6 96 0.0 1 22   96.21   -8 LegendNANA
07:00 -2.0 -2.6 96 0.0 1 21   96.23   -8 LegendNANA
08:00 -2.1 -2.6 96 0.0 1 18   96.26   -8 LegendNANA
09:00
10:00
11:00 -1.8 -2.5 95 0.0 1 17   96.36   -7 LegendNANA
12:00 -1.7 -2.4 95 0.0 1 19   96.36   -7 LegendNANA
13:00 -1.5 -2.2 95 0.0 1 18   96.35   -7 LegendNANA
14:00 -1.4 -2.0 95 0.0 2 18   96.34   -7 LegendNANA
15:00 -1.2 -1.7 97 0.0 1 14   96.36   -6 LegendNANA
16:00 -1.0 -1.4 97 0.2 1 20   96.40   -7 LegendNANA
17:00 -0.9 -1.3 97 0.0 1 21   96.45   -7 LegendNANA
18:00 -0.9 -1.2 97 0.0 1 22   96.51   -7 LegendNANA
19:00 -0.9 -1.3 97 0.0 1 23   96.54   -7 LegendNANA
20:00 -1.0 -1.4 97 0.0 1 20   96.58   -7 LegendNANA
21:00 -1.2 -1.6 97 0.0 1 17   96.62   -6 LegendNANA
22:00 -1.3 -1.7 97 0.2 2 21   96.63   -7 LegendNANA
23:00 -1.3 -1.8 97 0.0 2 18   96.65   -7 LegendNANA

Notes on Data Quality.

Legend

  • E = Estimated
  • M = Missing
  • NA = Not Available*
  • [empty] = Indicates an unobserved value
Date modified: